Home   Weather   Gröbming   Past weeks

Flag for Austria Past Weather in Gröbming, Styria, Austria — Yesterday and Last 2 Weeks

Now
55 °F

Cool.


Feels Like: 55 °F
Forecast: 42 / 76 °F
Wind: No wind

Location: Aigen Im Ennstal

Current Time: Sep 28, 2016 at 12:24:18 PM

Latest Report: Sep 28, 2016 at 12:00 PM


Visibility: N/A

Pressure: 30.45 "Hg (27.77 "Hg at 769m altitude)

Humidity: 74%

Dew Point: 47 °F

Location of GröbmingLocation

Past Weather in Gröbming — Graph

°F

Gröbming Temperature Yesterday

Maximum temperature yesterday: 67 °F (at 4:00 PM)
Minimum temperature yesterday: 39 °F (at 8:00 AM)
Average temperature yesterday: 53 °F

High & Low Weather Summary for the Past Weeks

 TemperatureHumidityPressure
High79 °F (Sep 13, 4:00 PM)98% (Sep 24, 7:00 AM)30.53 "Hg (Sep 24, 7:00 AM)
Low35 °F (Sep 22, 7:00 AM)39% (Sep 14, 4:00 PM)29.79 "Hg (Sep 18, 3:00 PM)
Average55 °F79%30.10 "Hg
* Reported Sep 13 11:00 AM — Sep 28 11:00 AM, Gröbming, Weather by CustomWeather, © 2016

Note: Actual official high and low records may vary slightly from our data, if they occured in-between our weather recording intervals... More about our weather records

Advertising

Gröbming Weather History for the Previous 24 Hours

Scroll right to see more
 ConditionsComfort  
Time TempWeatherWind HumidityBarometerVisibility
11:00 AM
Wed, Sep 28
49 °FFog.N/A91%30.49 "Hg19 mi
10:00 AM45 °FCool.No wind97%30.53 "HgN/A
9:00 AM43 °FQuite cool.No wind98%30.53 "HgN/A
8:00 AM41 °FFog.1 mph98%30.53 "Hg0 mi
7:00 AM39 °FFog.No wind97%30.52 "Hg0 mi
6:00 AM38 °FChilly.No wind96%30.53 "HgN/A
5:00 AM38 °FFog.No wind97%30.52 "Hg0 mi
4:00 AM41 °FQuite cool.No wind96%30.52 "HgN/A
3:00 AM42 °FQuite cool.1 mph96%30.51 "HgN/A
2:00 AM44 °FFog.1 mph94%30.49 "Hg5 mi
1:00 AM45 °FCool.No wind92%30.48 "HgN/A
12:00 AM49 °FCool.1 mph88%30.47 "HgN/A
11:00 PM
Tue, Sep 27
47 °FClear.N/A90%30.45 "Hg12 mi
8:00 PM54 °FPassing clouds.N/A76%30.36 "Hg19 mi
7:00 PM57 °FCool.2 mph71%30.33 "HgN/A
6:00 PM64 °FMild.2 mph57%30.26 "HgN/A
5:00 PM66 °FScattered clouds.N/A51%30.24 "Hg25 mi
4:00 PM67 °FMild.3 mph50%30.23 "HgN/A
3:00 PM66 °FMild.3 mph52%30.24 "HgN/A
2:00 PM64 °FScattered clouds.N/A58%30.24 "Hg25 mi
1:00 PM63 °FMild.1 mph60%30.26 "HgN/A
12:00 PM59 °FCool.No wind62%30.28 "HgN/A
Weather by CustomWeather, © 2016

See weather overviewHow to use our weather pages